User: anonymous   Login
Location: Caltech
(34.1382°N, 118.1253°W)
Time: 21:15:35
(UTC-07:00)
Language:

Cosmos 1758 Rocket - Orbit

View from above orbital plane
View from above orbital plane
View from above satellite
View from above satellite

Ground track
Ground track

The orbit data is extracted from the following two-line orbital elements,

1 16792U 86046B   15142.85742387  .00000266  00000-0  29761-4 0  9999
2 16792 082.4835 193.9642 0022783 262.5722 217.3154 14.82913731562789
Epoch (UTC): 22 May 2015 20:34:41
Eccentricity: 0.0022783
inclination: 82.4835°
perigee height: 604 km
apogee height: 636 km
right ascension of ascending node: 193.9642°
argument of perigee: 262.5722°
revolutions per day: 14.82913731
mean anomaly at epoch: 217.3154°
orbit number at epoch: 56278

The dashed part of the orbit path shows where the satellite is in the earth's shadow,  

DLR